Location: Zagreb
(45.8000°N, 16.0000°E)
Time: 14:20:20
(UTC+02:00)

Vanguard 1 - Pass Details

Date: 08 August 2022
Orbit: 649 x 3832 km, 34.2° (Epoch: 25 September)

Event Time Altitude Azimuth Distance (km) Brightness Sun altitude
Rises 02:44:57 0° 176° (S) 5,664 - -23.8°
Exits shadow 02:49:17 - 161° (SSE) 5,324 13.4 -23.4°
Reaches altitude 10° 02:50:40 10° 156° (SSE) 5,270 13.4 -23.3°
Maximum altitude 02:59:08 16° 125° (SE) 5,489 13.8 -22.6°
Drops below altitude 10° 03:09:24 10° 95° (E) 6,638 14.6 -21.6°
Sets 03:18:19 0° 79° (ENE) 7,942 15.4 -20.8°
